Regional Weather Roundup
Issued by NWS

Home | Current Version | Previous Version | Graphics & Text | Print | Product List | Glossary On
Versions: 1 2 3 4 5 6 7 8 9 10 11 12 13 14 15 16 17 18 19 20 21 22 23 24 25 26 27 28 29 30 31 32 33 34 35 36 37 38 39 40 41 42 43 44 45 46 47 48 49 50
000
ASUS43 KMPX 190910
RWRMN
WEATHER ROUNDUP FOR MINNESOTA
NATIONAL WEATHER SERVICE TWIN CITIES/CHANHASSEN MN
400 AM CDT SUN APR 19 2015


NOTE: "FAIR" INDICATES FEW OR NO CLOUDS BELOW 12,000 FEET WITH NO
SIGNIFICANT WEATHER AND/OR OBSTRUCTIONS TO VISIBILITY. N/A MEANS
CURRENT SKY AND/OR WEATHER CONDITIONS ARE NOT AVAILABLE.

MNZ060>063-068>070-191000-
   Twin Cities Metro

CITY           SKY/WX    TMP DP  RH WIND       PRES   REMARKS
TWIN CITIES    CLOUDY    51  40  65 SE10      29.78F
ST PAUL        CLOUDY    50  40  68 SE14      29.79F
CRYSTAL        CLOUDY    51  40  65 SE10      29.76F
BLAINE         DRIZZLE   50  41  71 SE12      29.77F
LAKEVILLE      CLOUDY    48  45  87 SE8       29.77F
EDEN PRAIRIE   CLOUDY    51  41  68 SE12      29.76F
SOUTH ST PAUL  CLOUDY    50  39  65 E5        29.78F
LAKE ELMO      MOCLDY    48  37  66 SE5       29.80F
$$
MNZ001>005-007-008-013>017-022>024-027-028-191000-
   Northwest Minnesota

CITY           SKY/WX    TMP DP  RH WIND       PRES   REMARKS
BEMIDJI        RAIN      40  39  97 E7        29.80F
HALLOCK        RAIN      48  45  87 S3        29.77S
ROSEAU         DRIZZLE   48  37  66 S12       29.78F
WARROAD        DRIZZLE   46  37  71 S9        29.79F
THIEF RVR FALL CLOUDY    50  39  66 S3        29.78F
CROOKSTON      RAIN      50  45  81 CALM      29.77F
FOSSTON        DRIZZLE   46  34  61 SE6       29.78F
DETROIT LAKES  RAIN      45  45 100 E8        29.75F
MOORHEAD       LGT RAIN  48  46  93 E3        29.75F
PARK RAPIDS    RAIN      43  41  93 E10       29.76F FOG
MAHNOMEN       LGT RAIN  46  44  91 SE3       29.76F
$$
MNZ006-009>011-018-025>026-191000-
   North Central Minnesota

CITY           SKY/WX    TMP DP  RH WIND       PRES   REMARKS
BAUDETTE       CLOUDY    46  28  49 SE9       29.81F
FLAG ISLAND    CLOUDY    39  32  75 S7        29.79F
INTL FALLS     CLOUDY    42  22  44 E6        29.84F
WASKISH        CLOUDY    46  34  61 CALM      29.81F
BIG FORK       RAIN      39  36  87 SE7       29.85F
LONGVILLE      RAIN      39  37  93 E5        29.81F
GRAND RAPIDS   CLOUDY    37  34  87 SE5       29.85S
ORR            CLOUDY    43  23  45 SE9       29.83F
COOK           LGT RAIN  43  34  70 SE9G20    29.87F
WALKER         RAIN      40  39  95 E7        29.80F
$$
MNZ012-019>021-037-191000-
   Northeast Minnesota

CITY           SKY/WX    TMP DP  RH WIND       PRES   REMARKS
DULUTH         LGT RAIN  38  33  82 E16       29.84F
ELY            LGT RAIN  39  28  65 S8        29.91S
HIBBING        RAIN      39  35  86 SE7       29.86F
EVELETH        RAIN      37  34  87 E5        29.88F
DULUTH HARBOR  LGT RAIN  37  36  93 NE23      29.88F
TWO HARBORS    LGT RAIN  39  34  81 NE12      29.89F
SILVER BAY     RAIN      37  34  87 NE8       29.95S
GRAND MARAIS     N/A     41  27  57 NE12      30.00F
G MARAIS ARPRT CLOUDY    37  21  52 E8        29.98F
$$
MNZ029>031-032-039>041-046>048-054>057-064-191000-
   West Central Minnesota

CITY           SKY/WX    TMP DP  RH WIND       PRES   REMARKS
FERGUS FALLS   DRIZZLE   46  45  93 NE8       29.72F
WHEATON        CLOUDY    46  45  93 NW7       29.71F
MORRIS         FOG       54  52  94 SW12      29.68S VSB 1/2
ALEXANDRIA     LGT RAIN  47  46  97 SE13      29.70F FOG
ELBOW LAKE     LGT RAIN  47  47  99 E10       29.68F
WADENA         LGT RAIN  43  41  93 E12       29.72F
GLENWOOD       DRIZZLE   52  50  93 SE15      29.71F
APPLETON       CLOUDY    54  52  94 SW5       29.69F FOG
BENSON         RAIN      54  52  94 S12       29.70F
ORTONVILLE     CLOUDY    50  48  93 SW3       29.69S FOG
MADISON        MOCLDY    52  50  93 CALM      29.70F FOG
WILLMAR        RAIN      54  54 100 SE10G16   29.73F
$$
MNZ033>034-036-042>043-049>051-058-059-191000-
   Central Minnesota

CITY           SKY/WX    TMP DP  RH WIND       PRES   REMARKS
ST CLOUD       LGT RAIN  47  45  93 E6        29.76F
SAUK CENTRE    LGT RAIN  48  47  96 SE13G20   29.72F
PAYNESVILLE    LGT RAIN  47  46  97 E12G17    29.74F
AITKIN         RAIN      39  36  87 NE6       29.80F
PINE RIVER     RAIN      39  39 100 E9        29.83F
BRAINERD       LGT RAIN  41  40  96 VRB6      29.78F
STAPLES        RAIN      43  41  93 E8        29.75F
LONG PRAIRIE   DRIZZLE   45  45 100 E10       29.73F
LITTLE FALLS   LGT RAIN  45  43  93 E6        29.76F
LITCHFIELD     DRIZZLE   52  50  93 SE7       29.75F
BUFFALO        RAIN      50  40  69 SE8       29.78F
MAPLE LAKE     CLOUDY    51  45  78 SE3       29.77F
$$
MNZ037-044-045-052-053-191000-
   East Central Minnesota

CITY           SKY/WX    TMP DP  RH WIND       PRES   REMARKS
PRINCETON      LGT RAIN  48  43  81 E7        29.78F
MORA           LGT RAIN  41  37  87 E3        29.81F
CAMBRIDGE      LGT RAIN  48  37  66 SE8       29.77S
RUSH CITY      CLOUDY    44  38  78 SE8       29.80F
MOOSE LAKE     LGT RAIN  36  34  93 NE6       29.81F
HINCKLEY       DRIZZLE   43  39  87 E7        29.81F
CLOQUET        DRIZZLE   36  34  93 E10G16    29.83F
MCGREGOR       CLOUDY    37  36  93 E6        29.83F
$$
MNZ071>073-080-081-089-090-097-098-191000-
   Southwest Minnesota

CITY           SKY/WX    TMP DP  RH WIND       PRES   REMARKS
MONTEVIDEO     CLOUDY    55  55 100 SW8       29.71F FOG
GRANITE FALLS  LGT RAIN  55  55  98 SE8       29.72F
CANBY          CLOUDY    56  54  93 SW6       29.71F
MARSHALL       CLOUDY    55  50  82 S13       29.71F
REDWOOD FALLS  CLOUDY    55  54  96 S12       29.72F FOG
OLIVIA         CLOUDY    52  50  93 SE9       29.72F FOG
PIPESTONE      CLOUDY    55  54  94 SW12      29.72F FOG
WINDOM         CLOUDY    55  54  94 S6        29.74F
WORTHINGTON    CLOUDY    54  52  94 S8        29.75S
JACKSON        CLOUDY    55  54  94 S7        29.75F FOG
TRACY          DRIZZLE   55  54  95 S9        29.72F
SLAYTON        CLOUDY    54  54 100 S12       29.74S FOG
$$
MNZ065>067-074>077-082>085-091>093-191000-
   South Central Minnesota

CITY           SKY/WX    TMP DP  RH WIND       PRES   REMARKS
MANKATO        CLOUDY    54  46  76 S10       29.76S
NEW ULM        LGT RAIN  54  54 100 S7        29.74F
ST JAMES       RAIN      55  54  94 SE8       29.75F
FAIRMONT       CLOUDY    55  46  71 S9        29.74F
GLENCOE        CLOUDY    52  50  92 E6        29.75F
FARIBAULT      LGT RAIN  54  46  76 SE10G16   29.78S
OWATONNA       DRIZZLE   52  45  76 SE13G18   29.77F
ALBERT LEA     CLOUDY    54  46  76 SE14G20   29.77F
$$
MNZ078>079-086>088-094>096-191000-
   Southeast Minnesota

CITY           SKY/WX    TMP DP  RH WIND       PRES   REMARKS
ROCHESTER      CLOUDY    50  43  77 SE13      29.81F
RED WING       CLOUDY    50  37  62 E10       29.78F
STANTON        CLOUDY    52  41  66 SE10G17   29.77S
DODGE CENTER   RAIN      50  45  81 SE15      29.79S
WINONA         CLOUDY    52  36  54 SE12      29.83F
AUSTIN         LGT RAIN  52  45  76 SE13G18   29.78F
PRESTON        CLOUDY    50  42  72 SE7       29.81F
$$
ABBREVIATIONS USED IN REMARKS
   TC - TEMPERATURES IN CELSIUS
  WCI - WIND CHILL INDEX
   HX - HEAT INDEX
  VSB - VISIBILITY
$$



USA.gov is the U.S. government's official web portal to all federal, state and local government web resources and services.